"TOA5","MOW","CPU:UNC_MeetingWaters","DataHourly"
"TIMESTAMP","SondeTempC","SpCond","DOSat","DOmg","pH","Turb","BattVolt_Min"
"TS","","","","","","",""
"","Smp","Smp","Smp","Smp","Smp","Smp","Min"
"2002-11-01 00:00:00",12.0100002289,0.199000000954,72.6999969482,7.82999992371,7.36000013351,9.10000038147,12.1499996185
"2002-11-01 01:00:00",11.7700004578,0.209999993443,73.4000015259,7.94000005722,7.36999988556,9.19999980927,12.1400003433
"2002-11-01 02:00:00",11.5399999619,0.196999996901,74.1999969482,8.06999969482,7.36999988556,9.19999980927,12.1199998856
"2002-11-01 03:00:00",11.3400001526,0.232999995351,73.9000015259,8.07999992371,7.38999986649,8.19999980927,12.0900001526
"2002-11-01 04:00:00",11.1599998474,0.193000003695,75.0999984741,8.25,7.40999984741,7.5,12.0799999237
"2002-11-01 05:00:00",10.9300003052,0.187000006437,76.5,8.44999980927,7.44000005722,7.19999980927,12.0699996948
"2002-11-01 06:00:00",10.6599998474,0.181999996305,76.1999969482,8.46000003815,7.48999977112,6.69999980927,12.0500001907
"2002-11-01 07:00:00",10.4200000763,0.189999997616,75.5999984741,8.43999958038,7.51999998093,6.19999980927,12.029999733
"2002-11-01 08:00:00",10.279999733,0.185000002384,76.4000015259,8.56000041962,7.53999996185,6.0,12.0200004578
"2002-11-01 09:00:00",10.2399997711,0.188999995589,76.5,8.57999992371,7.55999994278,5.5,12.0500001907
"2002-11-01 10:00:00",10.4399995804,0.185000002384,78.0,8.71000003815,7.57999992371,5.09999990463,12.3900003433
"2002-11-01 11:00:00",10.8299999237,0.209999993443,79.1999969482,8.77000045776,7.59000015259,5.09999990463,12.5600004196
"2002-11-01 12:00:00",11.4499998093,0.226999998093,81.0,8.84000015259,7.59000015259,4.30000019073,12.5799999237
"2002-11-01 13:00:00",11.75,0.233999997377,82.4000015259,8.93000030518,7.57999992371,4.59999990463,12.6899995804
"2002-11-01 14:00:00",12.0500001907,0.246000006795,83.0999984741,8.93999958038,7.59000015259,4.5,12.6599998474
"2002-11-01 15:00:00",12.2299995422,0.219999998808,83.0,8.89999961853,7.59000015259,4.69999980927,12.5500001907
"2002-11-01 16:00:00",12.1800003052,0.193000003695,81.1999969482,8.71000003815,7.59000015259,4.69999980927,12.5200004578
"2002-11-01 17:00:00",12.2600002289,0.22499999404,81.6999969482,8.75,7.57999992371,4.69999980927,12.5900001526
"2002-11-01 18:00:00",12.2700004578,0.216000005603,79.9000015259,8.55000019073,7.55000019073,5.0,12.3999996185
"2002-11-01 19:00:00",12.1800003052,0.218999996781,77.5,8.31000041962,7.53000020981,5.0,12.3599996567
"2002-11-01 20:00:00",11.9600000381,0.221000000834,75.8000030518,8.18000030518,7.51999998093,5.09999990463,12.3299999237
"2002-11-01 21:00:00",11.8100004196,0.180999994278,74.9000015259,8.10999965668,7.51000022888,5.0,12.3000001907
"2002-11-01 22:00:00",11.6099996567,0.178000003099,73.9000015259,8.02999973297,7.48999977112,4.69999980927,12.279999733
"2002-11-01 23:00:00",11.3999996185,0.178000003099,73.1999969482,8.0,7.48999977112,4.59999990463,12.2600002289
"2002-11-02 00:00:00",11.220000267,0.181999996305,73.0,8.0,7.48000001907,4.5,12.2399997711
"2002-11-02 01:00:00",11.1400003433,0.203999996185,72.5999984741,7.96999979019,7.46000003815,4.90000009537,12.220000267
"2002-11-02 02:00:00",10.9200000763,0.182999998331,71.5,7.90000009537,7.44000005722,4.80000019073,12.2100000381
"2002-11-02 03:00:00",10.6400003433,0.179000005126,73.5999984741,8.17000007629,7.46999979019,5.0,12.1899995804
"2002-11-02 04:00:00",10.4399995804,0.179000005126,73.8000030518,8.23999977112,7.48000001907,4.40000009537,12.1800003052
"2002-11-02 05:00:00",10.25,0.181999996305,73.3000030518,8.22999954224,7.48999977112,4.09999990463,12.1700000763
"2002-11-02 06:00:00",10.0200004578,0.179000005126,73.0,8.22999954224,7.5,3.79999995232,12.1599998474
"2002-11-02 07:00:00",9.90999984741,0.179000005126,72.0,8.14000034332,7.5,3.79999995232,12.1400003433
"2002-11-02 08:00:00",9.67000007629,0.180000007153,73.1999969482,8.31999969482,7.53000020981,4.19999980927,12.1300001144
"2002-11-02 09:00:00",9.53999996185,0.180999994278,73.6999969482,8.39999961853,7.53999996185,4.59999990463,12.1199998856
"2002-11-02 10:00:00",9.40999984741,0.182999998331,74.5999984741,8.52999973297,7.59000015259,5.19999980927,12.2399997711
"2002-11-02 11:00:00",9.56999969482,0.186000004411,75.5999984741,8.61999988556,7.59999990463,5.19999980927,12.25
"2002-11-02 12:00:00",9.89000034332,0.190999999642,77.0999984741,8.72999954224,7.63000011444,5.09999990463,12.3900003433
"2002-11-02 13:00:00",10.4099998474,0.22499999404,77.6999969482,8.68000030518,7.63000011444,5.09999990463,12.4200000763
"2002-11-02 14:00:00",10.8699998856,0.193000003695,78.3000030518,8.65999984741,7.61999988556,4.5,12.5
"2002-11-02 15:00:00",11.0900001526,0.187999993563,80.0999984741,8.81999969482,7.61999988556,4.5,12.6800003052
"2002-11-02 16:00:00",11.1999998093,0.185000002384,78.1999969482,8.57999992371,7.59999990463,4.0,12.6999998093
"2002-11-02 17:00:00",11.3100004196,0.186000004411,79.0,8.64999961853,7.59999990463,3.90000009537,12.6599998474
"2002-11-02 18:00:00",11.2899999619,0.182999998331,76.8000030518,8.39999961853,7.57999992371,3.79999995232,12.470000267
"2002-11-02 19:00:00",11.0799999237,0.187000006437,74.9000015259,8.23999977112,7.57000017166,3.5,12.4200000763
"2002-11-02 20:00:00",10.9399995804,0.188999995589,73.3000030518,8.09000015259,7.55999994278,3.59999990463,12.3900003433
"2002-11-02 21:00:00",10.7700004578,0.193000003695,73.5,8.14000034332,7.57000017166,3.5,12.3500003815
"2002-11-02 22:00:00",10.5200004578,0.187999993563,73.0,8.14000034332,7.57000017166,3.79999995232,12.3299999237
"2002-11-02 23:00:00",10.4899997711,0.184000000358,74.0,8.25,7.57999992371,3.59999990463,12.3100004196
"2002-11-03 00:00:00",10.3000001907,0.180999994278,74.0,8.28999996185,7.57999992371,954.0,12.3000001907
"2002-11-03 00:00:00",10.279999733,0.180999994278,74.3000030518,8.32999992371,7.57999992371,3.70000004768,12.279999733
"2002-11-03 01:00:00",10.1300001144,0.180999994278,73.5,8.27000045776,7.57000017166,3.5,12.279999733
"2002-11-03 02:00:00",10.1099996567,0.181999996305,73.8000030518,8.31000041962,7.57999992371,3.5,12.2700004578
"2002-11-03 03:00:00",10.0399999619,0.180999994278,73.1999969482,8.25,7.57999992371,3.5,12.2600002289
"2002-11-03 04:00:00",10.0100002289,0.181999996305,72.9000015259,8.22000026703,7.57000017166,4.30000019073,12.2399997711
"2002-11-03 05:00:00",10.0399999619,0.203999996185,72.6999969482,8.18999958038,7.55999994278,4.0,12.2399997711
"2002-11-03 06:00:00",10.0699996948,0.182999998331,72.0999984741,8.11999988556,7.55000019073,3.90000009537,12.2299995422
"2002-11-03 07:00:00",9.98999977112,0.180999994278,71.9000015259,8.10999965668,7.53999996185,3.90000009537,12.220000267
"2002-11-03 08:00:00",9.93000030518,0.182999998331,71.9000015259,8.13000011444,7.53000020981,3.59999990463,12.2100000381
"2002-11-03 09:00:00",10.0600004196,0.182999998331,72.4000015259,8.15999984741,7.53000020981,3.5,12.470000267
"2002-11-03 10:00:00",10.2299995422,0.185000002384,75.0999984741,8.43000030518,7.53999996185,3.90000009537,12.6800003052
"2002-11-03 11:00:00",10.6400003433,0.186000004411,78.6999969482,8.75,7.55999994278,3.70000004768,12.5
"2002-11-03 12:00:00",10.8599996567,0.188999995589,76.8000030518,8.48999977112,7.57000017166,3.70000004768,12.5900001526
"2002-11-03 13:00:00",11.2299995422,0.187000006437,76.0,8.32999992371,7.57999992371,3.59999990463,12.6599998474
"2002-11-03 14:00:00",11.6300001144,0.187000006437,80.0,8.69999980927,7.63000011444,3.70000004768,12.8000001907
"2002-11-03 15:00:00",11.7700004578,0.185000002384,81.1999969482,8.80000019073,7.61000013351,4.09999990463,12.6999998093
"2002-11-03 16:00:00",11.8100004196,0.184000000358,78.0,8.43999958038,7.59999990463,3.59999990463,12.5500001907
"2002-11-03 17:00:00",11.6599998474,0.182999998331,76.1999969482,8.27000045776,7.57999992371,3.79999995232,12.470000267
"2002-11-03 18:00:00",11.5200004578,0.181999996305,74.4000015259,8.10999965668,7.57999992371,3.79999995232,12.4300003052
"2002-11-03 19:00:00",11.3500003815,0.181999996305,71.5,7.82000017166,7.57000017166,3.70000004768,12.4099998474
"2002-11-03 20:00:00",11.2100000381,0.181999996305,71.8000030518,7.88000011444,7.57999992371,3.90000009537,12.3900003433
"2002-11-03 21:00:00",11.1499996185,0.182999998331,71.5999984741,7.86999988556,7.55999994278,3.59999990463,12.3800001144
"2002-11-03 22:00:00",11.0500001907,0.188999995589,72.5999984741,7.98999977112,7.57000017166,3.70000004768,12.3599996567
"2002-11-03 23:00:00",11.1099996567,0.187000006437,71.5,7.86000013351,7.55999994278,4.40000009537,12.3500003815
"2002-11-04 00:00:00",11.0399999619,0.182999998331,72.0,7.92999982834,7.55999994278,4.19999980927,12.3400001526
"2002-11-04 01:00:00",11.029999733,0.182999998331,70.5,7.76999998093,7.55999994278,4.0,12.3400001526
"2002-11-04 02:00:00",11.0100002289,0.182999998331,70.9000015259,7.80999994278,7.55999994278,3.90000009537,12.3199996948
"2002-11-04 03:00:00",11.029999733,0.182999998331,70.6999969482,7.78999996185,7.55999994278,3.70000004768,12.3199996948
"2002-11-04 04:00:00",11.0200004578,0.182999998331,70.6999969482,7.78999996185,7.55999994278,3.70000004768,12.3000001907
"2002-11-04 05:00:00",11.0200004578,0.185000002384,70.4000015259,7.76000022888,7.53999996185,4.69999980927,12.2899999619
"2002-11-04 06:00:00",11.2899999619,0.333000004292,72.6999969482,7.96000003815,7.55000019073,6.69999980927,12.279999733
"2002-11-04 07:00:00",11.470000267,0.328999996185,73.0,7.96000003815,7.51999998093,9.80000019073,12.2600002289
"2002-11-04 08:00:00",11.8100004196,0.317000001669,70.5999984741,7.63999986649,7.5,11.6999998093,12.3000001907
"2002-11-04 09:00:00",12.1599998474,0.280999988317,67.9000015259,7.28000020981,7.42999982834,11.6000003815,12.470000267
"2002-11-04 10:00:00",12.2600002289,0.266000002623,66.8000030518,7.15000009537,7.36000013351,10.5,12.6400003433
"2002-11-04 11:00:00",12.3999996185,0.228000000119,51.4000015259,5.48999977112,7.32999992371,9.10000038147,12.6800003052
"2002-11-04 12:00:00",12.5399999619,0.266000002623,67.1999969482,7.15000009537,7.34000015259,8.60000038147,12.8999996185
"2002-11-04 13:00:00",12.9300003052,0.263000011444,68.8000030518,7.25,7.34999990463,8.5,12.7399997711
"2002-11-04 14:00:00",13.220000267,0.193000003695,53.0999984741,5.55999994278,7.30999994278,8.80000019073,12.7399997711
"2002-11-04 15:00:00",13.3500003815,0.157000005245,60.5,6.32999992371,7.28000020981,9.0,12.75
"2002-11-04 16:00:00",13.4300003052,0.188999995589,64.5,6.73000001907,7.26000022888,10.6999998093,12.5600004196
"2002-11-04 17:00:00",13.3500003815,0.15000000596,61.9000015259,6.46999979019,7.23000001907,9.19999980927,12.5100002289
"2002-11-04 18:00:00",13.2399997711,0.148000001907,61.0,6.38999986649,7.21999979019,10.0,12.470000267
"2002-11-04 19:00:00",13.1000003815,0.148000001907,58.7000007629,6.17000007629,7.21999979019,10.6000003815,12.4499998093
"2002-11-04 20:00:00",12.9600000381,0.145999997854,59.0,6.21999979019,7.21999979019,10.1000003815,12.4200000763
"2002-11-04 21:00:00",12.8500003815,0.148000001907,55.0999984741,5.82999992371,7.21999979019,9.60000038147,12.4099998474
"2002-11-04 22:00:00",12.8599996567,0.149000003934,54.0,5.69999980927,7.23000001907,8.10000038147,12.3999996185
"2002-11-04 23:00:00",12.8500003815,0.15000000596,54.0999984741,5.71999979019,7.26000022888,7.09999990463,12.3900003433
"2002-11-05 00:00:00",12.8299999237,0.158999994397,57.0999984741,6.03000020981,7.26999998093,6.0,12.3800001144
"2002-11-05 01:00:00",12.720000267,0.151999995112,57.0,6.03999996185,7.28999996185,5.19999980927,12.3699998856
"2002-11-05 02:00:00",12.6400003433,0.150999993086,56.7000007629,6.01999998093,7.28999996185,4.69999980927,12.3599996567
"2002-11-05 03:00:00",12.6099996567,0.153999999166,59.2000007629,6.28999996185,7.30000019073,4.5,12.3400001526
"2002-11-05 04:00:00",12.5799999237,0.155000001192,60.5999984741,6.44000005722,7.30999994278,4.0,12.3199996948
"2002-11-05 05:00:00",12.4799995422,0.152999997139,61.5999984741,6.57000017166,7.32999992371,3.5,12.3100004196
"2002-11-05 06:00:00",12.3999996185,0.155000001192,61.5999984741,6.57999992371,7.36000013351,3.20000004768,12.3000001907
"2002-11-05 07:00:00",12.3400001526,0.155000001192,62.2999992371,6.65999984741,7.38000011444,3.20000004768,12.2899999619
"2002-11-05 08:00:00",12.3100004196,0.158000007272,63.4000015259,6.78000020981,7.42000007629,3.20000004768,12.3100004196
"2002-11-05 09:00:00",12.25,0.158999994397,66.5999984741,7.13000011444,7.42999982834,4.0,12.3699998856
"2002-11-05 10:00:00",12.3400001526,0.180999994278,67.4000015259,7.21000003815,7.46000003815,3.29999995232,12.5100002289
"2002-11-05 11:00:00",12.3500003815,0.163000002503,67.0999984741,7.17999982834,7.48000001907,3.09999990463,12.5500001907
"2002-11-05 12:00:00",12.4499998093,0.163000002503,70.4000015259,7.51000022888,7.5,3.29999995232,12.5399999619
"2002-11-05 13:00:00",12.4899997711,0.175999999046,69.4000015259,7.38999986649,7.48999977112,3.0,12.6199998856
"2002-11-05 14:00:00",12.6199998856,0.217999994755,69.9000015259,7.42000007629,7.51000022888,2.90000009537,12.5900001526
"2002-11-05 15:00:00",12.6099996567,0.308999985456,70.0,7.42999982834,7.53999996185,3.29999995232,12.4300003052
"2002-11-05 16:00:00",12.8100004196,0.321999996901,69.5,7.34999990463,7.5,20.1000003815,12.3900003433
"2002-11-05 17:00:00",13.4200000763,0.268000006676,65.0999984741,6.78999996185,7.44000005722,37.2000007629,12.3500003815
"2002-11-05 18:00:00",14.2600002289,0.150999993086,67.4000015259,6.90999984741,7.32999992371,102.199996948,12.3199996948
"2002-11-05 19:00:00",14.3800001144,0.104000002146,66.6999969482,6.80999994278,7.23999977112,113.599998474,12.3000001907
"2002-11-05 20:00:00",14.0,0.103000000119,66.3000030518,6.82999992371,7.09999990463,96.5999984741,12.279999733
"2002-11-05 21:00:00",14.1599998474,0.0900000035763,66.6999969482,6.84999990463,7.11999988556,71.1999969482,12.2600002289
"2002-11-05 22:00:00",14.1999998093,0.0939999967813,66.0999984741,6.78000020981,7.09999990463,56.4000015259,12.2600002289
"2002-11-05 23:00:00",13.6400003433,0.0670000016689,67.8000030518,7.03999996185,7.03999996185,147.399993896,12.2600002289
"2002-11-06 00:00:00",13.3800001144,0.054999999702,67.1999969482,7.01999998093,6.96999979019,91.6999969482,12.2600002289
"2002-11-06 01:00:00",13.2299995422,0.070000000298,66.8000030518,7.0,6.96999979019,61.5999984741,12.2600002289
"2002-11-06 02:00:00",13.6300001144,0.082000002265,67.5999984741,7.01999998093,7.03999996185,56.5,12.25
"2002-11-06 03:00:00",13.4899997711,0.0630000010133,67.9000015259,7.07999992371,7.07000017166,81.4000015259,12.25
"2002-11-06 04:00:00",13.2399997711,0.0610000006855,66.1999969482,6.94000005722,7.0,88.9000015259,12.25
"2002-11-06 05:00:00",13.25,0.0850000008941,66.4000015259,6.96000003815,6.98999977112,60.0999984741,12.2399997711
"2002-11-06 06:00:00",13.779999733,0.104000002146,66.1999969482,6.84999990463,7.09999990463,55.5,12.2299995422
"2002-11-06 07:00:00",13.6199998856,0.109999999404,65.9000015259,6.84999990463,7.09999990463,49.2999992371,12.2299995422
"2002-11-06 08:00:00",13.8599996567,0.111000001431,66.1999969482,6.84000015259,7.15000009537,36.5999984741,12.2299995422
"2002-11-06 09:00:00",14.0200004578,0.125,65.4000015259,6.73000001907,7.15999984741,45.0,12.2299995422
"2002-11-06 10:00:00",14.0399999619,0.115000002086,65.0,6.69000005722,7.13000011444,47.9000015259,12.4799995422
"2002-11-06 11:00:00",14.1400003433,0.120999999344,65.0999984741,6.69000005722,7.15000009537,40.9000015259,12.7700004578
"2002-11-06 12:00:00",14.3299999237,0.130999997258,64.9000015259,6.63999986649,7.19000005722,39.2000007629,12.7700004578
"2002-11-06 13:00:00",14.5,0.159999996424,65.6999969482,6.69000005722,7.15000009537,37.9000015259,12.6700000763
"2002-11-06 14:00:00",14.6000003815,0.165999993682,64.0,6.5,7.13999986649,37.0999984741,12.6099996567
"2002-11-06 15:00:00",14.4799995422,0.179000005126,64.0,6.51999998093,7.13999986649,37.0999984741,12.7700004578
"2002-11-06 16:00:00",14.3500003815,0.187999993563,62.4000015259,6.38000011444,7.13999986649,42.7999992371,12.5
"2002-11-06 17:00:00",14.0600004196,0.195999994874,61.5,6.32999992371,7.11999988556,41.0999984741,12.4499998093
"2002-11-06 18:00:00",13.9300003052,0.204999998212,59.0999984741,6.09999990463,7.07999992371,35.0,12.4200000763
"2002-11-06 19:00:00",13.5200004578,0.21099999547,60.2000007629,6.26999998093,7.07999992371,30.1000003815,12.3999996185
"2002-11-06 20:00:00",13.3100004196,0.217999994755,61.7000007629,6.46000003815,7.17000007629,23.8999996185,12.3800001144
"2002-11-06 21:00:00",13.1199998856,0.224000006914,60.5999984741,6.36000013351,7.19000005722,21.2000007629,12.3599996567
"2002-11-06 22:00:00",12.9099998474,0.231000006199,62.2999992371,6.57000017166,7.28000020981,20.1000003815,12.3400001526
"2002-11-06 23:00:00",12.6199998856,0.236000001431,62.0999984741,6.59000015259,7.28999996185,20.0,12.3199996948
"2002-11-07 00:00:00",12.3000001907,0.239999994636,62.0,6.63000011444,7.30000019073,18.6000003815,12.3000001907
"2002-11-07 01:00:00",12.029999733,0.244000002742,61.9000015259,6.67000007629,7.30000019073,17.0,12.279999733
"2002-11-07 02:00:00",11.7399997711,0.247999995947,61.2000007629,6.63000011444,7.28999996185,15.8000001907,12.2600002289
"2002-11-07 03:00:00",11.4399995804,0.252999991179,60.5,6.59999990463,7.28999996185,14.8000001907,12.25
"2002-11-07 04:00:00",11.2700004578,0.256000012159,60.0,6.57999992371,7.28999996185,13.3000001907,12.220000267
"2002-11-07 05:00:00",11.1499996185,0.25799998641,59.7999992371,6.57000017166,7.28999996185,12.1999998093,12.220000267
"2002-11-07 06:00:00",11.0,0.259999990463,60.0,6.61999988556,7.28000020981,10.8000001907,12.1999998093
"2002-11-07 07:00:00",10.8100004196,0.268000006676,60.5,6.69999980927,7.28000020981,10.0,12.1800003052
"2002-11-07 08:00:00",10.5900001526,0.270999997854,60.0,6.67000007629,7.28000020981,9.39999961853,12.1800003052
"2002-11-07 09:00:00",10.4600000381,0.277999997139,59.7999992371,6.67000007629,7.28000020981,11.1000003815,12.25
"2002-11-07 10:00:00",10.6300001144,0.277000010014,61.2000007629,6.80000019073,7.30999994278,10.1000003815,12.4200000763
"2002-11-07 11:00:00",11.0399999619,0.272000014782,62.7999992371,6.90999984741,7.32000017166,9.30000019073,12.5600004196
"2002-11-07 12:00:00",11.279999733,0.273000001907,62.2000007629,6.80999994278,7.34000015259,9.10000038147,12.5500001907
"2002-11-07 13:00:00",11.6800003052,0.272000014782,63.9000015259,6.92999982834,7.34000015259,8.80000019073,12.6599998474
"2002-11-07 14:00:00",12.0,0.286000013351,65.1999969482,7.01999998093,7.36999988556,7.80000019073,12.7700004578
"2002-11-07 15:00:00",12.0200004578,0.287000000477,65.1999969482,7.01999998093,7.36999988556,8.10000038147,12.6700000763
"2002-11-07 16:00:00",12.0100002289,0.284999996424,64.5999984741,6.94999980927,7.36000013351,10.6999998093,12.779999733
"2002-11-07 17:00:00",11.9300003052,0.266000002623,62.5999984741,6.75,7.34000015259,8.0,12.5
"2002-11-07 18:00:00",11.6599998474,0.27500000596,61.0999984741,6.63000011444,7.30000019073,11.5,12.4499998093
"2002-11-07 19:00:00",11.4499998093,0.250999987125,59.0999984741,6.44999980927,7.30000019073,6.80000019073,12.4099998474
"2002-11-07 20:00:00",11.2399997711,0.233999997377,56.0,6.13999986649,7.26999998093,7.5,12.3900003433
"2002-11-07 21:00:00",11.0500001907,0.234999999404,55.7999992371,6.15000009537,7.26999998093,6.19999980927,12.3599996567
"2002-11-07 22:00:00",10.779999733,0.237000003457,54.5999984741,6.05000019073,7.26000022888,7.0,12.3400001526
"2002-11-07 23:00:00",10.6099996567,0.230000004172,52.2000007629,5.80999994278,7.23000001907,5.90000009537,12.3299999237
"2002-11-08 00:00:00",10.3999996185,0.226999998093,51.5,5.76000022888,7.21999979019,7.40000009537,12.3100004196
"2002-11-08 01:00:00",10.1800003052,0.22499999404,52.2999992371,5.88000011444,7.21999979019,6.19999980927,12.2899999619
"2002-11-08 02:00:00",9.97000026703,0.221000000834,51.7000007629,5.84000015259,7.21000003815,6.0,12.2600002289
"2002-11-08 03:00:00",9.65999984741,0.223000004888,52.5,5.96999979019,7.19999980927,5.90000009537,12.25
"2002-11-08 04:00:00",9.44999980927,0.225999996066,52.0,5.94999980927,7.21999979019,5.19999980927,12.2299995422
"2002-11-08 05:00:00",9.26000022888,0.225999996066,52.5999984741,6.03000020981,7.23000001907,7.90000009537,12.2100000381
"2002-11-08 06:00:00",9.0,0.226999998093,53.0999984741,6.13999986649,7.23999977112,6.0,12.1800003052
"2002-11-08 07:00:00",8.82999992371,0.284999996424,53.5,6.19999980927,7.26000022888,4.80000019073,12.1599998474
"2002-11-08 08:00:00",8.64999961853,0.243000000715,55.7999992371,6.5,7.28000020981,4.40000009537,12.1499996185
"2002-11-08 09:00:00",8.85000038147,0.240999996662,55.5999984741,6.44999980927,7.28999996185,4.40000009537,12.2100000381
"2002-11-08 10:00:00",9.19999980927,0.24699999392,58.2000007629,6.69000005722,7.32000017166,124.099998474,12.4099998474
"2002-11-08 11:00:00",9.93999958038,0.244000002742,60.0999984741,6.78999996185,7.34000015259,4.69999980927,12.5500001907
"2002-11-08 12:00:00",10.6300001144,0.298999994993,61.7999992371,6.86999988556,7.36000013351,18.6000003815,12.5200004578
"2002-11-08 13:00:00",11.1999998093,0.294999986887,62.7999992371,6.88999986649,7.36999988556,6.5,12.529999733
"2002-11-08 14:00:00",11.5399999619,0.28900000453,62.7999992371,6.84000015259,7.36999988556,39.0999984741,12.5699996948
"2002-11-08 15:00:00",11.75,0.301999986172,62.4000015259,6.76000022888,7.36000013351,4.09999990463,12.5500001907
"2002-11-08 16:00:00",11.8800001144,0.300999999046,62.4000015259,6.73999977112,7.34999990463,3.70000004768,12.7100000381
"2002-11-08 17:00:00",11.8800001144,0.264999985695,61.4000015259,6.63000011444,7.34000015259,4.40000009537,12.4600000381
"2002-11-08 18:00:00",11.7299995422,0.246000006795,59.9000015259,6.5,7.30999994278,4.09999990463,12.4099998474
"2002-11-08 19:00:00",11.6199998856,0.263000011444,58.2999992371,6.34000015259,7.26999998093,6.19999980927,12.3800001144
"2002-11-08 20:00:00",11.529999733,0.27500000596,59.2999992371,6.44999980927,7.28000020981,5.19999980927,12.3500003815
"2002-11-08 21:00:00",11.5100002289,0.25799998641,57.7999992371,6.30000019073,7.28000020981,4.19999980927,12.3299999237
"2002-11-08 22:00:00",11.4899997711,0.254999995232,57.4000015259,6.25,7.26999998093,4.90000009537,12.3100004196
"2002-11-08 23:00:00",11.3699998856,0.24699999392,55.0999984741,6.01999998093,7.25,4.40000009537,12.279999733
"2002-11-09 00:00:00",11.3900003433,0.312000006437,57.2000007629,6.23999977112,7.26000022888,4.40000009537,12.2600002289
"2002-11-09 01:00:00",11.0699996948,0.287000000477,57.0999984741,6.28000020981,7.26999998093,4.69999980927,12.2299995422
"2002-11-09 02:00:00",10.8999996185,0.245000004768,53.9000015259,5.96000003815,7.23999977112,4.40000009537,12.1999998093
"2002-11-09 03:00:00",10.7899999619,0.240999996662,52.7000007629,5.84000015259,7.23000001907,4.90000009537,12.1899995804
"2002-11-09 04:00:00",10.6300001144,0.241999998689,53.5999984741,5.96000003815,7.23000001907,4.90000009537,12.1700000763
"2002-11-09 05:00:00",10.470000267,0.236000001431,50.7999992371,5.67000007629,7.21000003815,4.90000009537,12.1700000763
"2002-11-09 06:00:00",10.3100004196,0.237000003457,51.7000007629,5.80000019073,7.21999979019,5.09999990463,12.1599998474
"2002-11-09 07:00:00",10.1899995804,0.238000005484,49.0999984741,5.51000022888,7.21000003815,185.0,12.1400003433
"2002-11-09 08:00:00",10.0500001907,0.241999998689,50.0,5.63000011444,7.21999979019,4.90000009537,12.1599998474
"2002-11-09 09:00:00",10.2399997711,0.246000006795,51.2999992371,5.75,7.23000001907,4.59999990463,12.2600002289
"2002-11-09 10:00:00",10.7100000381,0.259000003338,56.2999992371,6.25,7.26000022888,4.09999990463,12.3999996185
"2002-11-09 11:00:00",11.5500001907,0.259000003338,59.5,6.48000001907,7.28999996185,4.80000019073,12.6700000763
"2002-11-09 12:00:00",12.2299995422,0.259999990463,60.2999992371,6.46000003815,7.30000019073,4.30000019073,12.5600004196